パンスターズ彗星

C/2023 R1 ( PanSTARRS )

English version
Home page
Updated on January 10, 2025

---------------------------------------------------------------------

・ プロフィール

発見日 2023年9月7日
発見光度 20.1等
発見者 Pan-STARRS 2 telescope (Haleakala)

・ 写真集

・ 軌道要素

Epoch 2024 Oct. 17.0 TT = JDT 2460600.5
T 2026 Apr. 13.62206 TT                                 Rudenko
q   3.5692721            (2000.0)            P               Q
z  -0.0004957      Peri.  144.28836     +0.07124517     -0.88872746
 +/-0.0000012      Node    62.55434     -0.99187709     -0.01515924
e   1.0017692      Incl.  149.31610     -0.10537537     -0.45818523
From 1062 observations 2023 July 29-2024 Nov. 14, mean residual 0".5.

・ 星図

・ 光度変化

        m1 = 5.5 + 5 logΔ + 10.0 log r

---------------------------------------------------------------------

軌道要素はM.P.E.C. 2024-V192に掲載されたものです。
星図はステラナビゲータ Ver.11 (アストロアーツ) で作成したものです。
光度グラフはComet for Windowsで作成したものです。

---------------------------------------------------------------------

Copyright(C) Seiichi Yoshida (comet@aerith.net). All rights reserved.